Terug naar catalogus

CINEMA 2

ActiefWetenschapSSO
NORAD 39424·PAYLOAD·🇺🇸 United States

Gelanceerd Nov 21, 2013 vanaf Dombarovsky

Loading…

Volgende Passages (komende 24 uur)

TLE

VersSource: Space-Track

Epoch: Sep 14, 2026, 13:14 UTC

1 39424U 13066J   26257.55181199  .00001159  00000-0  13686-3 0  9992
2 39424  97.8867 187.5465 0074017 196.3783 163.5040 14.84758092689359

Volg CINEMA 2 in realtime met AllMySat

Download on the App Store